Home > Weather > Zürich > Past weeks

Flag for Switzerland Weather for the Past 2 Weeks in Zürich, Zurich, Switzerland

Now
65 °F

Mild.


Feels Like: 65 °F
Forecast: 39 / 72 °F
Wind: 5 mph from Northeast

Location: Zuerich-Fluntern

Current Time: May 6, 2016 at 1:16:35 PM

Latest Report: May 6, 2016 at 12:00 PM


Visibility: N/A

Pressure: 29.97 "Hg

Humidity: 32%

Dew Point: 35 °F

Location of ZürichLocation

Historic Weather in Zürich — Graph

°F

Zürich Temperature Yesterday

Maximum temperature yesterday: 66 °F (at 4:00 PM)
Minimum temperature yesterday: 40 °F (at 6:00 AM)
Average temperature yesterday: 53 °F

High & Low Weather Summary for the Past Weeks

 TemperatureHumidityPressure
High69 °F (Apr 21, 5:00 PM)99% (May 4, 5:00 AM)30.37 "Hg (May 4, 5:00 AM)
Low31 °F (Apr 28, 7:00 AM)30% (May 5, 5:00 PM)29.69 "Hg (Apr 26, 6:00 PM)
Average48 °F70%30.03 "Hg
* Reported Apr 21 12:00 Noon — May 6 12:00 Noon, Zürich, Weather by CustomWeather, © 2016

Note: Actual official high and low records may vary slightly from our data, if they occured in-between our weather recording intervals... More about our weather records

Advertising

Zürich Weather History for the Previous 24 Hours

Scroll right to see more
 ConditionsComfort  
Time TempWeatherWind HumidityBarometerVisibility
12:00 PM
Fri, May 6
65 °FMild.5 mph32%29.97 "HgN/A
11:00 AM63 °FMild.5 mph40%29.99 "HgN/A
10:00 AM57 °FCool.2 mph63%30.02 "HgN/A
9:00 AM52 °FCool.1 mph66%30.05 "HgN/A
8:00 AM49 °FCool.No wind77%30.06 "HgN/A
7:00 AM45 °FCool.6 mph86%30.07 "HgN/A
6:00 AM46 °FCool.8 mph84%30.06 "HgN/A
5:00 AM46 °FCool.7 mph81%30.07 "HgN/A
4:00 AM46 °FCool.5 mph84%30.06 "HgN/A
3:00 AM47 °FCool.2 mph82%30.06 "HgN/A
2:00 AM47 °FCool.3 mph79%30.06 "HgN/A
1:00 AM49 °FCool.7 mph75%30.06 "HgN/A
12:00 AM52 °FCool.8 mph67%30.05 "HgN/A
11:00 PM
Thu, May 5
54 °FCool.8 mph59%30.03 "HgN/A
10:00 PM56 °FRefreshingly cool.8 mph55%30.03 "HgN/A
9:00 PM58 °FRefreshingly cool.7 mph47%30.02 "HgN/A
8:00 PM61 °FRefreshingly cool.6 mph41%30.01 "HgN/A
7:00 PM64 °FMild.N/A33%30.00 "HgN/A
6:00 PM65 °FMild.10 mph30%30.01 "HgN/A
5:00 PM66 °FMild.8 mph30%30.01 "HgN/A
4:00 PM66 °FMild.10 mph34%30.02 "HgN/A
3:00 PM64 °FMild.9 mph37%30.05 "HgN/A
2:00 PM61 °FRefreshingly cool.9 mph33%30.08 "HgN/A
1:00 PM58 °FRefreshingly cool.10 mph35%30.10 "HgN/A
Weather by CustomWeather, © 2016

See weather overviewHow to use our weather pages